Theta_e
334 335 334 334 333 331 328 327 326 324 325 326 323 322 322 323 324 324 324 324 325 324 324 324 324 324 323 323 322 320 317 316 315 314 313 313 311 311 310 311 311 310
333 335 334 334 328 326 327 326 323 323 323 323 322 321 321 322 322 323 322 323 323 323 323 323 323 322 321 320 320 318 315 315 313 313 312 311 310 310 310 310 310 311
333 333 331 327 324 322 321 321 321 321 321 320 321 320 320 320 320 321 321 322 321 321 322 321 320 320 320 319 318 316 314 313 312 312 311 310 310 310 310 310 310 310
332 331 328 327 325 321 321 319 320 320 320 320 319 319 320 320 319 319 320 320 320 320 320 320 319 319 319 318 317 314 313 311 311 311 310 310 310 310 310 310 310 310
329 326 325 323 322 321 321 320 319 319 318 318 319 319 318 318 318 319 319 320 319 319 319 318 319 318 318 317 315 313 312 310 310 310 309 308 309 309 309 309 308 308
325 323 321 321 321 320 319 319 318 317 317 317 317 317 317 318 319 318 318 318 318 317 317 317 317 317 317 316 315 313 312 310 309 308 307 307 307 308 307 308 307 306
323 320 319 320 319 319 318 318 317 317 316 316 317 317 318 318 318 318 317 317 316 316 316 316 316 315 315 314 312 310 309 309 308 307 306 306 306 306 306 307 305 304
320 320 320 320 319 317 316 316 316 315 315 315 317 317 318 316 316 316 316 316 315 314 314 314 314 314 313 312 309 308 308 308 307 306 306 306 306 305 305 305 305 304
321 319 320 319 318 316 315 314 314 314 315 316 316 315 316 316 315 316 315 315 314 313 312 312 312 312 311 310 308 307 306 307 307 306 305 305 304 304 304 304 304 304
319 318 318 317 315 314 314 313 313 313 315 315 314 314 313 314 315 315 314 314 312 312 311 310 309 309 308 308 307 306 305 304 305 306 305 305 304 304 304 304 304 303
316 316 316 315 314 313 312 312 312 313 313 312 313 312 313 313 314 314 313 312 311 310 309 308 308 307 307 306 307 306 304 304 304 304 305 305 305 305 305 304 304 304
314 314 314 313 313 312 312 312 312 311 311 312 312 311 312 313 313 313 312 310 310 309 308 308 307 307 306 305 305 305 305 305 305 304 304 304 304 304 304 305 305 304
313 313 314 313 312 312 311 310 310 310 311 311 311 311 311 312 312 311 310 310 309 308 307 307 306 305 305 304 304 304 304 304 304 304 304 304 304 304 305 305 305 305
313 313 312 312 311 310 309 308 309 309 309 310 310 310 311 310 310 309 309 309 309 307 307 306 305 304 304 304 304 304 304 304 304 304 303 304 304 304 304 305 305 305
312 311 311 310 309 308 307 307 307 307 307 308 310 310 310 310 310 309 308 307 307 306 305 305 304 304 304 304 304 304 304 304 304 303 303 303 303 303 304 304 304 305
311 310 309 308 307 307 307 306 306 306 307 308 309 310 310 310 309 309 308 307 305 305 304 304 303 303 302 299 301 303 303 304 304 304 303 303 302 302 302 303 302 303
310 309 308 307 306 306 305 305 305 306 307 307 308 308 309 309 308 307 307 306 304 303 302 303 303 302 295 294 295 298 304 304 304 304 304 303 303 302 302 301 301 301
309 308 307 306 306 305 305 305 305 305 306 307 307 308 308 308 307 306 306 305 304 303 303 303 302 297 293 293 294 295 300 305 304 303 304 303 303 302 301 301 300 301
309 307 306 305 305 306 305 304 304 304 305 305 306 308 308 307 306 305 304 304 303 302 302 302 302 294 293 293 293 294 295 302 303 305 303 303 303 302 301 301 301 300
308 307 306 306 305 305 305 304 304 304 305 306 306 307 306 306 305 305 304 303 303 303 302 303 302 295 293 293 293 293 294 299 305 305 304 303 303 303 302 301 301 300
307 306 305 305 305 305 305 305 305 305 305 306 306 306 305 305 305 304 304 303 303 303 303 303 302 293 293 292 292 293 293 298 305 305 304 304 304 304 303 303 302 302
307 306 305 305 305 306 305 305 305 305 305 305 306 306 306 305 304 304 303 303 303 303 303 302 302 292 293 292 292 293 295 304 304 304 303 303 303 304 303 303 302 302
307 306 305 305 306 305 305 304 304 304 304 305 305 305 304 303 303 303 303 303 303 303 303 303 303 296 292 292 292 293 298 303 303 302 302 302 302 303 303 303 303 302
307 306 305 305 304 304 303 304 304 304 304 305 305 304 303 303 303 303 303 303 303 303 303 303 304 297 292 292 292 294 299 303 302 301 302 301 301 302 302 302 301 299
307 306 305 304 304 304 304 302 302 303 304 305 305 305 304 303 303 302 303 303 304 304 304 304 304 299 291 291 291 293 301 303 301 300 300 300 300 300 301 301 301 299
307 305 305 304 303 302 302 301 302 302 303 304 304 304 303 302 302 302 302 303 305 305 305 306 305 304 299 291 292 293 296 302 301 300 299 300 300 298 299 300 300 301
Wind_Speed
6 8 10 10 9 10 10 9 7 8 6 5 7 6 6 6 7 8 8 8 8 8 8 8 8 8 8 8 8 8 8 9 8 7 8 8 8 8 7 8 7 6
8 7 8 8 8 9 7 8 8 8 7 6 6 7 6 7 8 8 9 9 9 9 8 8 8 9 9 9 8 8 8 8 8 6 8 9 7 8 8 8 7 6
7 9 11 11 10 10 11 9 9 8 7 7 7 6 7 7 8 8 8 9 9 9 8 9 10 10 10 10 9 9 8 9 8 8 8 8 7 7 7 7 7 8
7 9 11 11 9 10 9 9 9 9 7 8 7 7 7 7 8 9 9 9 9 9 8 9 11 10 10 10 9 8 9 8 8 8 8 7 7 7 7 7 7 7
11 11 8 9 8 9 8 10 10 10 8 8 8 7 8 8 9 9 9 9 9 9 9 9 10 11 11 10 9 9 8 8 8 8 8 8 7 6 6 7 8 9
12 12 9 10 11 10 9 10 11 10 10 9 8 7 8 9 9 10 10 10 9 10 10 9 9 9 9 9 9 8 8 8 7 9 9 9 8 7 6 7 9 10
15 13 12 10 11 11 10 9 8 9 9 9 9 8 9 10 10 10 10 10 11 10 10 9 9 9 8 9 9 9 8 8 8 9 9 8 9 9 8 9 9 10
16 11 11 9 11 10 11 10 7 7 9 9 10 9 9 10 10 9 9 11 10 11 10 10 10 10 9 9 9 9 8 6 8 9 10 10 9 10 9 8 9 11
13 13 12 12 12 11 11 10 8 8 8 10 9 9 8 9 10 10 10 10 10 10 10 10 10 9 8 9 9 10 9 8 8 9 10 10 10 10 10 9 10 10
12 13 12 11 12 10 11 8 9 8 9 10 10 9 9 8 9 10 10 10 10 10 10 9 9 9 9 9 10 10 10 10 10 9 10 10 10 10 10 9 9 9
13 11 11 11 11 10 12 10 9 9 8 10 9 9 9 9 8 8 10 10 9 11 10 10 10 10 10 10 9 10 10 10 10 10 10 10 10 9 9 9 9 8
12 10 10 11 11 10 11 10 9 9 9 8 9 10 9 8 9 8 9 11 11 10 10 10 10 10 10 10 10 10 10 9 9 9 9 9 9 9 9 7 7 7
10 9 9 9 9 9 9 9 9 9 10 9 8 9 9 9 9 10 9 10 10 10 10 10 10 10 10 10 10 11 10 10 9 9 9 7 7 8 7 6 6 6
11 9 9 9 9 9 9 9 9 8 8 8 8 9 9 10 11 11 9 10 9 10 10 9 10 10 10 10 9 9 9 10 9 8 9 8 8 7 6 6 6 6
9 9 9 10 10 9 9 9 9 8 7 7 8 8 8 9 10 11 11 11 11 10 10 9 9 9 7 8 9 9 9 9 8 8 9 9 8 8 6 6 6 7
10 9 9 9 10 10 9 9 8 8 8 8 9 9 9 9 10 10 11 11 11 11 10 8 7 6 7 9 8 9 9 7 7 7 8 8 8 8 7 7 7 7
11 11 11 10 10 9 9 9 9 8 8 9 9 9 9 9 10 11 10 10 11 11 10 8 8 6 10 10 10 9 8 8 8 7 7 7 7 7 8 8 8 8
11 11 11 11 11 10 10 9 9 9 9 9 9 10 9 9 10 10 10 10 10 12 11 10 9 7 10 10 9 9 8 8 7 7 6 6 6 7 7 7 8 8
9 10 10 10 10 10 9 9 9 9 9 9 10 9 10 10 10 10 10 10 12 13 12 10 9 8 10 10 9 10 9 7 7 6 7 7 7 7 7 7 7 7
8 9 10 10 11 10 10 10 9 9 9 8 9 9 9 10 10 10 10 11 12 12 11 10 9 8 10 10 10 10 9 7 7 6 6 6 6 6 6 7 7 7
12 11 12 11 11 11 10 10 10 10 10 9 9 9 10 10 10 10 10 11 11 11 10 9 6 8 10 11 11 11 9 7 6 5 6 6 5 5 5 5 4 5
12 12 12 11 11 11 11 10 10 10 10 8 8 8 8 8 8 9 11 11 11 11 11 10 6 8 10 11 11 10 8 6 6 6 6 6 5 5 5 4 4 5
12 13 13 12 11 11 11 10 10 9 9 8 9 8 9 9 9 9 10 11 11 11 11 9 7 6 10 10 10 9 6 6 6 6 6 6 4 4 4 5 5 5
11 12 12 12 11 11 10 9 9 8 9 8 10 10 9 9 9 10 9 10 10 11 10 10 8 6 8 9 8 6 6 7 6 6 6 6 5 4 4 5 7 10
9 11 12 12 12 11 10 10 9 9 8 8 8 8 8 8 9 10 9 8 8 8 8 9 8 6 5 7 9 8 6 6 6 6 6 5 6 5 4 5 5 7
10 11 10 11 11 10 9 8 8 8 9 9 8 8 9 9 9 9 10 8 7 8 6 7 7 6 5 5 7 7 5 5 6 6 6 5 5 5 5 5 4 5
Wind_Direction
202 166 151 149 151 142 141 138 131 130 121 119 118 117 112 112 108 101 101 101 100 99 99 102 105 105 103 99 95 92 87 83 80 74 72 70 64 60 59 56 56 59
188 153 138 127 118 133 130 123 123 119 120 114 114 115 110 113 108 107 106 105 100 100 104 104 103 105 106 104 96 95 90 84 79 71 73 69 71 68 65 60 60 61
162 140 130 137 147 136 127 127 122 117 124 119 116 117 117 110 110 105 105 106 107 108 104 105 106 107 107 105 96 92 90 84 80 75 72 68 66 69 67 64 62 59
150 136 138 146 130 125 131 127 121 118 129 123 122 121 119 117 112 108 106 109 110 108 104 103 110 110 110 106 97 91 86 82 80 81 79 75 69 70 68 67 65 64
135 127 121 125 122 122 125 128 130 134 130 122 122 122 118 117 116 115 117 115 113 110 106 105 108 113 113 107 100 97 90 86 80 81 82 79 73 70 66 67 66 64
131 126 123 138 138 133 133 134 136 137 126 127 125 124 121 119 119 120 121 120 116 112 111 109 108 107 104 103 100 94 92 89 87 88 87 84 80 72 71 71 72 70
127 125 137 131 133 131 132 129 133 132 120 124 124 123 125 121 121 122 121 120 118 117 115 113 111 108 105 103 98 95 91 92 94 93 92 88 85 80 76 76 75 76
127 132 136 129 127 127 120 121 133 127 121 122 119 122 122 120 120 118 120 118 116 115 111 110 109 107 107 104 102 100 95 92 96 95 92 88 86 83 80 77 78 78
124 130 130 128 122 118 119 130 137 127 120 123 121 118 116 118 121 122 120 118 114 112 109 106 106 103 102 104 104 102 100 98 96 94 92 92 89 87 86 85 81 77
117 122 121 120 122 127 126 127 131 117 118 116 118 118 117 116 119 122 119 115 112 110 107 105 103 103 102 102 103 103 102 100 97 93 92 91 91 90 87 84 81 77
129 127 125 125 127 130 129 129 122 115 113 116 119 118 120 121 118 115 115 113 110 111 107 105 106 106 104 102 100 102 101 99 97 93 91 91 90 88 86 85 79 73
131 128 123 127 127 125 122 119 117 111 115 117 121 120 119 118 117 112 112 111 109 108 108 108 108 107 105 105 106 105 102 100 99 97 95 94 91 88 85 78 77 72
126 118 120 118 118 116 113 112 110 114 119 120 121 121 120 116 111 109 108 109 108 107 108 109 109 108 109 110 110 108 107 106 103 101 98 93 89 88 83 79 77 74
126 110 112 111 112 109 104 106 111 113 113 117 120 117 119 120 119 115 110 106 105 105 106 109 111 113 113 114 113 111 109 107 106 106 104 98 92 87 85 83 79 74
109 103 110 116 111 109 110 112 112 109 113 114 114 112 112 116 118 115 112 108 107 109 112 111 112 109 114 119 117 111 108 106 106 106 105 102 98 93 88 81 76 69
114 111 112 115 115 115 113 112 111 111 110 110 110 113 114 116 113 113 113 115 115 114 111 108 101 99 89 93 102 114 111 109 110 106 103 104 103 99 90 80 72 73
128 133 130 121 116 111 112 112 110 110 109 109 111 113 114 115 116 114 113 114 116 119 116 111 108 106 107 101 97 103 112 112 109 104 100 100 100 97 92 84 75 70
132 131 124 120 121 124 122 117 114 113 114 118 119 118 117 117 116 115 114 117 121 124 121 116 112 114 113 105 99 94 98 107 106 103 99 99 97 94 90 84 80 76
117 117 118 120 122 120 118 115 115 112 119 125 124 124 125 122 120 120 123 126 130 128 123 119 118 121 111 109 103 101 98 103 106 103 104 99 94 91 86 80 79 79
117 114 114 118 121 120 120 120 122 121 126 124 124 126 124 121 124 125 130 133 133 129 124 121 120 125 117 112 107 103 100 95 103 99 95 92 90 89 88 79 71 75
139 129 125 129 130 130 131 133 129 127 126 129 132 132 130 130 132 133 134 135 133 130 126 122 118 130 118 113 108 107 106 105 104 104 100 94 88 84 83 83 82 77
131 128 130 133 132 132 132 129 129 131 130 130 129 128 127 127 129 134 136 136 135 131 128 124 126 131 116 111 111 116 123 113 112 106 104 102 96 92 92 87 78 71
137 136 137 136 137 136 135 132 130 128 127 132 130 131 132 135 136 140 142 139 138 138 132 128 129 128 115 113 118 131 124 117 116 116 110 106 98 98 95 81 70 64
140 138 137 137 138 138 135 132 129 130 135 142 140 141 140 140 141 139 141 142 142 141 139 133 128 117 118 118 129 134 127 125 125 121 118 114 113 98 94 87 67 50
136 135 137 140 139 136 135 134 136 137 138 140 138 136 134 140 143 143 141 143 142 136 125 129 124 115 109 123 126 137 136 134 132 130 129 128 122 111 99 95 95 71
141 140 140 140 131 124 126 128 129 130 136 138 134 138 141 144 145 145 145 144 141 141 141 132 126 126 110 114 131 141 153 144 139 135 136 135 123 114 107 97 96 99